Weather History for Gainesville, FL

Change the Weather History Date:

Thursday, July 11, 2013

  Actual Average Record
Temperature  
Mean Temperature 81 °F 81 °F  
Max Temperature 90 °F 91 °F 100 °F (1900)
Min Temperature 72 °F 71 °F 65 °F (1963)
Degree Days  
Heating Degree Days 0 0  
Month to date heating degree days 0 0  
Since 1 June heating degree days 0 0  
Since 1 July heating degree days 0 0  
Cooling Degree Days 16 16  
Month to date cooling degree days 180 176  
Year to date cooling degree days 1200 1125  
Since 1 June cooling degree days 668 615  
Growing Degree Days 30 (Base 50)    
Moisture  
Dew Point 72 °F    
Average Humidity 73    
Maximum Humidity 94    
Minimum Humidity 52    
Precipitation  
Precipitation 1.09 in 0.21 in 3.16 in (2010)
Month to date precipitation 5.58 2.34  
Year to date precipitation 22.83 25.45  
Snow  
Snow 0.00 in 0.00 in 0.00 in ()
Month to date snowfall 0.0 0.0  
Since 1 June snowfall 0.0 0.0  
Since 1 July snowfall 0.0 0.0  
Snow Depth 0.00 in    
Sea Level Pressure  
Sea Level Pressure 29.98 in    
Wind  
Wind Speed 5 mph (South)    
Max Wind Speed 18 mph    
Max Gust Speed 23 mph    
Visibility 8 miles    
Events Rain , Thunderstorm    
T = Trace of Precipitation, MM = Missing Value Source: NWS Daily Summary

Daily Weather History Graph

Daily Weather History Graph

Search for Another Location

Airport:

Trip Planner

Search our weather history database for the weather conditions in past years. The results will help you decide how hot, cold, wet, or windy it might be!

Date:

Astronomy

Jul. 11, 2013 Rise Set
Actual Time 6:36 AM EDT 8:32 PM EDT
Civil Twilight 6:10 AM EDT 8:59 PM EDT
Nautical Twilight 5:37 AM EDT 9:31 PM EDT
Astronomical Twilight 5:02 AM EDT 10:06 PM EDT
Moon 9:36 AM EDT (7/11) 10:32 PM EDT (7/11)
Length of Visible Light 14h 49m
Length of Day
13h 55m
Waxing Crescent, 10% of the Moon is Illuminated
Jul 11
Waxing Crescent
Jul 15
First Quarter
Jul 22
Full
Jul 29
Last Quarter
Aug 6
New

Hourly Weather History & Observations

Time (EDT) Temp. Heat Index Dew Point Humidity Pressure Visibility Wind Dir Wind Speed Gust Speed Precip Events Conditions
12:03 AM 73.4 °F - 71.6 °F 94% 30.05 in 1.0 mi ENE 18.4 mph 25.3 mph 0.41 in Rain , Thunderstorm Heavy Thunderstorms and Rain
12:14 AM 73.4 °F - 69.8 °F 88% 30.04 in 2.0 mi East 9.2 mph - 0.65 in Rain , Thunderstorm Heavy Thunderstorms and Rain
12:24 AM 73.4 °F - 69.8 °F 88% 30.05 in 4.0 mi East 8.1 mph - 0.70 in Rain , Thunderstorm Thunderstorms and Rain
12:33 AM 73.4 °F - 69.8 °F 88% 30.04 in 7.0 mi NE 5.8 mph - 0.72 in Rain Light Rain
12:53 AM 72.0 °F - 69.1 °F 91% 30.02 in 10.0 mi ESE 4.6 mph - 0.72 in Rain Light Rain
1:53 AM 75.0 °F - 72.0 °F 90% 30.00 in 10.0 mi SSE 8.1 mph - 0.00 in   Clear
2:53 AM 75.0 °F - 73.0 °F 94% 30.00 in 10.0 mi South 4.6 mph - N/A   Clear
3:53 AM 75.0 °F - 72.0 °F 90% 29.99 in 10.0 mi Calm Calm - N/A   Clear
4:53 AM 73.9 °F - 72.0 °F 93% 29.99 in 10.0 mi Calm Calm - N/A   Clear
5:53 AM 73.9 °F - 71.1 °F 91% 30.00 in 10.0 mi South 4.6 mph - N/A   Clear
6:53 AM 73.9 °F - 71.1 °F 91% 30.00 in 10.0 mi SSW 4.6 mph - N/A   Clear
7:53 AM 75.0 °F - 72.0 °F 90% 30.00 in 10.0 mi South 4.6 mph - N/A   Clear
8:16 AM 75.2 °F - 73.4 °F 94% 30.01 in 10.0 mi South 4.6 mph - N/A   Partly Cloudy
8:53 AM 78.1 °F - 73.0 °F 84% 30.01 in 10.0 mi SSW 5.8 mph - N/A   Unknown
9:53 AM 82.0 °F 87.4 °F 73.0 °F 74% 30.01 in 10.0 mi SSW 9.2 mph - N/A   Partly Cloudy
10:53 AM 82.9 °F 88.8 °F 73.0 °F 72% 30.01 in 10.0 mi SSW 5.8 mph - N/A   Partly Cloudy
11:53 AM 86.0 °F 91.5 °F 71.1 °F 61% 30.01 in 10.0 mi South 6.9 mph - N/A   Partly Cloudy
12:53 PM 87.1 °F 92.0 °F 70.0 °F 57% 29.99 in 10.0 mi Variable 4.6 mph - N/A   Partly Cloudy
1:53 PM 89.1 °F 94.1 °F 70.0 °F 53% 29.96 in 10.0 mi SE 6.9 mph - N/A   Scattered Clouds
2:53 PM 82.9 °F 87.5 °F 71.1 °F 67% 29.95 in 10.0 mi West 12.7 mph 21.9 mph N/A   Partly Cloudy
3:00 PM 82.4 °F 87.2 °F 71.6 °F 70% 29.95 in 10.0 mi West 8.1 mph 21.9 mph N/A   Partly Cloudy
3:53 PM 82.9 °F 87.0 °F 70.0 °F 65% 29.93 in 10.0 mi WNW 3.5 mph - N/A   Clear
4:53 PM 84.0 °F 88.4 °F 70.0 °F 63% 29.92 in 10.0 mi WSW 10.4 mph - N/A   Clear
5:53 PM 88.0 °F 94.7 °F 72.0 °F 59% 29.92 in 10.0 mi West 9.2 mph 16.1 mph N/A   Clear
6:53 PM 82.0 °F 86.3 °F 71.1 °F 69% 29.91 in 10.0 mi SSE 8.1 mph - N/A   Mostly Cloudy
7:00 PM 80.6 °F 84.6 °F 71.6 °F 74% 29.94 in 1.2 mi West 9.2 mph - 0.00 in Rain Light Rain
7:05 PM 78.8 °F - 71.6 °F 78% 29.94 in 0.2 mi SW 10.4 mph 23.0 mph 0.26 in Rain Heavy Rain
7:23 PM 77.0 °F - 71.6 °F 83% 29.94 in 4.0 mi Calm Calm - 1.02 in Rain Light Rain
7:38 PM 77.0 °F - 73.4 °F 89% 29.94 in 10.0 mi ESE 3.5 mph - 1.07 in Rain Light Rain
7:53 PM 78.1 °F - 73.9 °F 87% 29.94 in 10.0 mi Calm Calm - 1.07 in Rain Light Rain
8:53 PM 77.0 °F - 72.0 °F 84% 29.94 in 10.0 mi SSE 4.6 mph - 0.02 in Rain Light Rain
9:53 PM 75.9 °F - 73.0 °F 91% 29.93 in 10.0 mi Calm Calm - 0.00 in   Clear
10:53 PM 75.0 °F - 72.0 °F 90% 29.94 in 10.0 mi SSE 3.5 mph - N/A   Clear
11:53 PM 75.0 °F - 71.1 °F 87% 29.95 in 10.0 mi Calm Calm - N/A   Clear